Wind_Speed
8 9 7 5 7 6 6 5 6 6 8 7 7 7 7 8 8 6 10 12 13 14 14 14 14 14 14 14 14 15 15 16 17 18 19 19 18 16 13 11 10 10 10
9 6 5 7 7 6 5 5 4 6 7 8 7 7 7 6 9 7 6 12 13 13 13 14 13 13 14 14 15 16 16 17 18 20 21 21 20 18 15 12 10 9 8
6 8 4 5 6 7 7 6 7 6 7 7 7 6 6 7 6 8 7 4 13 12 12 12 12 13 14 15 16 17 17 18 17 18 19 22 23 20 17 14 12 10 6
6 6 6 4 5 4 5 1 5 6 5 5 5 5 5 5 6 7 6 5 5 3 9 11 12 13 14 16 17 18 17 16 17 18 19 21 23 24 20 16 13 11 9
8 8 5 4 7 3 3 5 4 2 2 3 6 5 5 4 5 5 5 6 8 6 2 8 13 13 14 16 18 19 18 16 17 18 19 20 22 23 23 20 15 13 10
4 7 2 5 8 3 4 4 4 1 4 2 6 5 5 4 5 4 4 6 3 4 2 3 7 7 12 17 18 19 19 17 17 19 20 21 20 21 22 21 18 15 12
4 10 6 6 3 3 6 2 2 3 2 1 2 4 3 5 5 4 5 4 2 3 2 2 5 5 8 9 16 19 20 19 17 18 19 20 21 20 20 20 20 17 15
5 4 7 5 4 3 2 1 1 1 3 1 4 2 6 5 4 5 4 4 3 2 0 2 4 5 6 5 11 17 19 20 17 18 18 19 21 21 19 18 18 18 17
4 4 6 1 7 5 4 2 0 2 3 2 2 7 2 2 6 4 3 3 3 2 1 2 2 4 5 2 8 11 17 18 18 17 17 19 21 22 21 18 16 16 16
6 4 5 4 6 2 4 1 1 4 5 3 3 3 7 2 7 5 5 2 4 3 0 2 3 1 6 6 6 11 15 17 18 17 17 18 20 22 21 18 15 15 13
9 7 6 6 6 5 7 4 2 1 1 2 3 3 2 0 4 6 3 6 3 2 0 2 2 4 5 3 7 13 16 17 19 18 17 18 19 21 21 19 15 14 13
5 7 7 7 7 4 4 4 5 6 1 2 4 1 2 4 3 5 3 3 2 2 1 2 1 3 7 4 7 16 20 19 22 20 19 18 18 20 21 20 16 13 13
6 9 9 7 5 7 4 6 8 5 5 3 4 2 1 4 5 5 8 6 2 6 4 11 4 2 5 10 12 18 21 20 24 23 20 18 18 19 20 19 18 13 12
6 10 7 6 5 7 7 7 6 6 6 4 5 6 2 3 3 4 7 9 11 11 10 9 9 4 8 10 15 20 17 22 24 22 20 20 19 18 18 17 16 16 13
7 6 6 6 6 6 7 8 5 8 6 6 6 7 7 6 6 7 6 7 8 13 15 7 9 12 8 12 17 18 18 18 15 16 22 21 18 17 16 15 14 14 15
12 12 7 6 6 7 7 7 7 9 9 8 7 8 10 8 7 7 8 9 10 11 15 14 15 15 15 18 17 22 17 16 16 13 21 24 20 17 14 16 16 16 16
3 4 8 8 7 9 8 10 11 5 5 6 8 7 7 8 8 8 9 8 9 10 14 13 13 15 19 12 18 14 15 15 14 18 17 24 21 19 19 20 19 18 19
8 8 5 6 6 5 8 9 5 7 7 8 8 7 7 6 6 7 6 8 9 12 10 13 10 12 13 11 12 18 14 10 15 16 20 21 21 23 20 21 20 20 20
9 7 8 8 8 8 9 7 9 8 8 7 7 7 7 7 8 8 10 9 7 9 11 12 14 10 13 15 11 15 15 12 15 16 17 16 19 20 23 21 20 20 18
12 12 10 9 8 10 10 9 8 8 9 8 8 9 8 8 9 9 8 9 10 9 10 13 16 14 15 12 9 14 16 15 15 17 16 17 19 22 20 20 18 19 22
14 14 12 12 11 10 12 13 11 11 12 9 10 10 10 12 14 15 12 10 12 9 11 13 12 14 16 16 15 14 18 18 19 17 18 16 19 16 16 17 15 13 24
14 14 13 13 12 12 17 18 16 12 12 10 9 9 9 13 13 15 12 12 13 13 14 13 14 15 19 18 16 17 17 20 20 14 21 20 14 14 15 16 15 19 28
15 15 13 13 16 17 14 18 18 17 13 12 10 13 10 11 12 12 14 13 13 14 15 16 18 17 19 17 19 21 21 22 22 23 16 21 20 21 15 16 18 22 22
11 12 12 15 14 13 13 15 17 16 16 15 14 13 13 16 17 14 11 6 8 9 13 13 15 20 22 22 23 23 22 21 20 20 19 22 17 18 19 16 18 20 12
13 9 11 11 11 11 10 8 8 10 14 16 16 15 13 12 10 7 8 8 7 7 9 16 15 13 12 12 12 15 10 15 19 19 16 21 15 20 18 16 17 16 19
16 13 19 18 14 13 10 8 8 3 4 4 7 8 9 8 7 7 7 8 9 10 11 10 11 12 12 13 12 6 8 10 14 16 13 21 21 22 21 12 13 16 19
Wind_Direction
122 116 133 80 103 96 90 83 83 90 95 95 93 89 87 99 96 95 82 92 94 94 91 84 77 70 60 47 37 32 27 22 17 16 14 9 1 355 342 330 321 309 291
117 118 128 115 113 80 84 73 73 81 103 95 101 100 96 89 110 104 77 84 93 92 87 81 74 64 52 42 34 30 25 23 20 20 17 15 8 5 359 348 340 333 307
136 123 128 113 108 90 103 95 102 109 107 98 106 105 103 104 105 102 109 70 67 80 80 76 70 62 51 40 30 24 21 22 22 21 19 19 15 13 9 1 355 349 342
130 110 105 102 121 105 106 105 117 91 94 97 93 99 111 114 111 107 125 113 119 45 68 78 66 55 43 33 25 22 18 19 22 20 19 21 20 18 17 13 8 9 9
137 112 116 140 107 115 107 120 74 58 106 131 124 106 117 122 127 122 117 112 132 111 96 65 52 41 38 30 25 22 23 23 21 20 18 17 20 22 19 18 18 17 16
162 120 131 139 128 141 142 66 66 29 65 276 39 116 116 128 132 121 120 123 127 87 101 67 23 10 26 22 25 25 22 20 18 17 16 16 13 21 22 21 18 17 11
167 139 139 132 68 90 106 100 242 37 125 315 217 120 130 131 132 134 131 138 98 117 84 34 53 53 6 8 15 21 22 21 19 14 13 14 13 11 19 21 23 20 16
180 167 158 170 192 157 142 353 147 81 70 286 8 178 156 163 125 130 139 146 146 136 111 62 22 6 29 29 358 8 13 15 14 13 14 14 15 9 9 16 21 25 20
195 180 183 73 186 144 180 125 140 1 95 74 80 346 315 159 158 171 148 157 143 159 156 350 49 356 354 351 15 1 5 7 9 10 8 8 6 7 3 5 12 20 26
199 206 202 202 179 233 192 145 239 96 349 126 108 17 37 23 326 167 163 189 184 194 268 327 337 306 14 1 3 352 357 3 3 3 1 0 360 2 2 357 1 10 16
190 201 216 219 217 162 225 179 156 161 341 56 103 154 76 176 318 334 158 137 180 188 336 354 337 339 344 332 337 342 349 354 360 357 352 349 353 356 360 359 352 359 5
199 205 203 205 222 193 264 201 225 193 92 168 73 301 315 8 299 349 333 242 329 262 246 247 195 327 316 345 332 337 344 345 344 348 345 343 347 349 354 357 355 348 352
184 216 190 212 227 232 207 205 229 208 206 229 227 338 246 312 341 325 303 333 260 287 266 271 104 54 310 334 323 324 337 336 329 333 331 330 335 342 347 352 355 351 344
148 218 202 211 230 226 207 233 227 239 234 241 266 248 291 264 276 293 308 326 314 307 304 310 337 349 318 335 338 340 323 324 320 332 341 331 326 333 340 348 351 359 350
192 186 193 202 212 218 219 239 219 243 249 249 252 273 257 284 267 276 281 288 298 305 309 329 6 338 315 318 319 324 321 317 336 334 347 344 338 334 338 345 346 345 347
199 145 159 210 212 223 229 232 228 260 235 224 245 250 263 270 293 272 280 284 285 284 289 294 308 320 327 320 323 312 317 338 328 330 336 345 341 342 341 342 339 337 335
271 220 232 234 226 227 234 241 217 226 253 249 251 254 266 270 260 272 293 295 283 288 286 297 312 307 311 321 325 328 334 337 339 324 328 339 340 341 334 331 329 326 326
246 211 217 230 235 241 253 241 212 245 238 250 258 254 257 261 274 301 305 291 288 291 290 299 304 316 312 315 317 330 334 340 332 321 335 329 336 336 345 342 335 324 324
236 237 238 232 215 242 249 243 213 227 238 244 250 251 254 254 270 272 270 275 298 303 318 302 310 310 312 306 306 322 321 326 331 333 329 330 324 338 342 338 340 343 347
235 237 230 243 246 242 248 246 239 231 239 248 250 255 256 262 271 278 282 269 290 284 294 290 304 301 305 329 340 334 325 325 327 329 327 334 328 331 328 322 322 326 336
239 237 237 222 230 232 243 232 241 243 249 242 253 256 264 248 250 265 266 273 274 293 286 300 305 307 316 331 329 319 313 314 317 319 320 317 318 327 323 326 313 319 329
225 228 232 232 227 225 236 240 238 228 249 248 233 255 267 276 276 270 279 284 289 290 290 289 291 290 294 302 300 300 302 307 311 316 314 316 327 318 325 321 323 323 325
207 207 214 217 221 229 240 241 247 242 240 239 238 239 222 256 262 264 288 290 286 282 281 283 285 287 286 296 297 302 304 301 303 303 308 306 313 313 310 320 316 317 317
202 202 200 229 238 247 249 247 244 237 231 241 236 247 244 251 272 281 285 296 279 286 288 286 276 275 287 292 295 299 307 317 318 312 316 320 324 314 313 301 322 321 321
188 199 220 234 236 241 240 236 214 228 234 235 238 241 244 252 255 258 284 288 319 311 289 294 305 305 312 323 340 343 331 317 329 327 330 321 323 311 314 314 317 320 324
219 226 246 256 257 249 241 223 183 176 192 242 231 229 235 246 259 273 288 302 312 322 333 339 351 343 346 354 347 333 318 320 315 320 325 338 325 331 320 322 312 312 316
Height
1599 1600 1599 1596 1600 1601 1601 1601 1601 1601 1600 1601 1602 1602 1602 1602 1603 1602 1599 1598 1597 1597 1597 1597 1597 1596 1595 1595 1593 1591 1589 1586 1583 1579 1576 1572 1568 1566 1563 1561 1559 1558 1557
1600 1602 1600 1602 1602 1601 1603 1603 1601 1602 1602 1602 1603 1604 1604 1604 1604 1605 1603 1601 1601 1600 1600 1600 1599 1598 1598 1597 1595 1593 1590 1587 1584 1581 1577 1573 1569 1566 1563 1560 1558 1556 1555
1601 1603 1603 1601 1604 1604 1603 1604 1604 1603 1603 1604 1605 1605 1605 1606 1605 1605 1607 1605 1605 1604 1603 1603 1602 1601 1600 1598 1596 1594 1591 1589 1586 1583 1579 1575 1571 1567 1563 1560 1558 1556 1555
1603 1603 1603 1605 1605 1604 1605 1605 1605 1605 1605 1605 1606 1607 1607 1607 1607 1607 1607 1608 1609 1607 1606 1605 1604 1603 1602 1600 1598 1595 1593 1590 1587 1584 1580 1577 1573 1568 1564 1562 1559 1557 1555
1603 1603 1604 1605 1605 1606 1605 1605 1606 1605 1607 1606 1605 1607 1608 1608 1607 1608 1608 1609 1608 1610 1609 1607 1606 1606 1604 1602 1600 1597 1594 1591 1589 1586 1582 1578 1575 1571 1567 1563 1561 1558 1557
1604 1604 1606 1606 1605 1607 1607 1606 1606 1607 1607 1606 1604 1607 1608 1608 1609 1609 1609 1610 1610 1610 1611 1609 1608 1607 1606 1604 1602 1599 1595 1593 1590 1587 1584 1580 1577 1573 1570 1566 1563 1560 1558
1604 1604 1606 1607 1605 1606 1607 1609 1609 1608 1609 1608 1607 1608 1608 1608 1609 1609 1610 1611 1611 1612 1612 1611 1611 1609 1608 1605 1604 1601 1597 1594 1591 1588 1585 1582 1579 1575 1572 1569 1565 1562 1559
1604 1606 1606 1608 1605 1609 1610 1609 1608 1609 1609 1609 1607 1606 1607 1609 1609 1609 1610 1610 1611 1612 1612 1611 1611 1609 1608 1608 1604 1602 1599 1596 1592 1589 1586 1583 1580 1576 1573 1570 1568 1565 1562
1606 1606 1607 1606 1608 1609 1610 1611 1610 1609 1609 1610 1609 1609 1606 1605 1608 1609 1610 1610 1611 1611 1612 1611 1611 1610 1609 1607 1605 1603 1600 1597 1593 1590 1587 1584 1581 1578 1574 1571 1569 1567 1564
1606 1606 1607 1608 1608 1610 1610 1611 1612 1610 1610 1610 1611 1610 1609 1607 1606 1607 1609 1610 1610 1610 1611 1611 1610 1609 1609 1608 1604 1603 1600 1597 1593 1590 1587 1585 1581 1578 1575 1572 1570 1568 1566
1603 1606 1607 1608 1609 1610 1611 1611 1611 1611 1611 1610 1610 1611 1611 1611 1609 1606 1604 1608 1609 1610 1610 1610 1610 1610 1608 1607 1607 1603 1601 1597 1594 1591 1588 1585 1582 1578 1575 1572 1570 1568 1566
1603 1605 1606 1607 1608 1609 1610 1611 1612 1612 1611 1611 1611 1611 1610 1610 1609 1608 1607 1607 1607 1607 1607 1604 1603 1607 1607 1605 1603 1602 1600 1597 1594 1591 1587 1584 1581 1578 1575 1572 1570 1568 1566
1601 1602 1604 1605 1608 1608 1609 1611 1611 1612 1613 1613 1612 1611 1613 1611 1610 1611 1609 1604 1606 1605 1601 1597 1586 1600 1605 1605 1604 1601 1599 1596 1594 1590 1586 1583 1581 1578 1575 1571 1569 1567 1566
1597 1601 1603 1605 1607 1608 1609 1611 1612 1612 1613 1613 1613 1612 1612 1613 1614 1614 1612 1610 1607 1605 1592 1593 1596 1601 1604 1603 1601 1600 1600 1595 1592 1589 1585 1581 1579 1577 1574 1572 1569 1567 1565
1595 1600 1603 1605 1607 1608 1609 1610 1610 1611 1611 1612 1613 1612 1612 1612 1613 1613 1613 1612 1611 1608 1604 1604 1603 1605 1601 1603 1600 1600 1597 1595 1590 1587 1584 1580 1578 1576 1573 1571 1569 1567 1565
1588 1594 1601 1605 1607 1608 1608 1609 1610 1610 1611 1611 1612 1612 1611 1611 1611 1612 1612 1611 1611 1610 1608 1606 1605 1604 1600 1601 1601 1597 1594 1591 1588 1586 1584 1581 1578 1575 1572 1571 1569 1567 1564
1593 1596 1601 1604 1605 1607 1607 1606 1607 1607 1609 1610 1609 1609 1610 1610 1610 1610 1609 1609 1609 1609 1606 1605 1603 1603 1601 1599 1597 1595 1593 1589 1589 1585 1583 1581 1577 1574 1572 1569 1567 1565 1563
1597 1599 1602 1603 1604 1605 1605 1605 1606 1608 1608 1609 1609 1609 1609 1609 1609 1609 1609 1609 1608 1606 1606 1605 1603 1602 1600 1598 1595 1593 1591 1590 1588 1584 1583 1579 1576 1573 1571 1568 1566 1563 1561
1597 1599 1599 1601 1602 1605 1605 1603 1605 1607 1607 1607 1607 1607 1607 1607 1608 1607 1606 1606 1606 1605 1604 1603 1601 1600 1598 1595 1594 1591 1589 1588 1586 1584 1582 1578 1575 1572 1569 1567 1564 1562 1560
1595 1597 1598 1599 1601 1603 1603 1603 1603 1604 1606 1606 1606 1605 1605 1605 1605 1605 1604 1604 1604 1602 1602 1601 1600 1598 1596 1593 1592 1591 1589 1587 1585 1583 1580 1577 1575 1571 1568 1565 1563 1560 1558
1592 1593 1595 1596 1597 1600 1601 1600 1601 1602 1603 1603 1604 1605 1604 1603 1602 1601 1601 1602 1600 1600 1600 1598 1597 1596 1594 1591 1591 1591 1588 1585 1583 1580 1578 1575 1572 1570 1566 1563 1559 1559 1558
1589 1590 1591 1593 1594 1596 1595 1596 1598 1598 1599 1600 1601 1602 1602 1600 1599 1598 1598 1598 1597 1596 1595 1595 1595 1594 1591 1590 1589 1588 1585 1582 1578 1578 1574 1571 1569 1567 1565 1562 1559 1557 1556
1584 1586 1587 1588 1588 1589 1591 1592 1594 1594 1596 1596 1597 1597 1598 1595 1596 1596 1595 1594 1594 1593 1591 1591 1589 1589 1587 1586 1584 1582 1581 1578 1576 1572 1570 1568 1566 1564 1561 1560 1557 1555 1553
1581 1584 1584 1584 1586 1586 1588 1589 1589 1590 1591 1592 1592 1593 1594 1594 1593 1592 1592 1592 1591 1590 1589 1587 1585 1583 1582 1581 1580 1578 1576 1573 1571 1571 1570 1565 1564 1562 1559 1555 1554 1551 1550
1578 1581 1581 1582 1584 1584 1585 1586 1587 1587 1587 1587 1588 1588 1588 1589 1589 1589 1589 1588 1587 1587 1585 1582 1581 1580 1579 1578 1576 1574 1575 1572 1569 1568 1567 1563 1561 1558 1555 1554 1552 1549 1548
1576 1576 1579 1580 1581 1582 1583 1584 1585 1587 1586 1586 1585 1585 1586 1587 1587 1586 1585 1585 1583 1583 1582 1580 1578 1578 1578 1576 1575 1573 1571 1569 1568 1566 1565 1562 1559 1557 1553 1552 1550 1548 1545